Theta_e
334 333 333 334 334 334 333 334 337 338 338 338 339 339 339 340 341 341 341 339 339 339 339 335 334 335 337 338 339 340 340 339 340 340 340 340 340 340 341 341 341 341 341 341 341 341 341 341 341 341 341 341 341 342 343 344 344 344 343 343 345 346 344 343 343 343 343 343 343 342 340 340 340 339
334 334 334 335 334 334 333 332 333 336 337 337 338 338 338 340 341 341 341 339 338 339 340 337 335 335 335 336 338 339 339 339 339 339 339 339 339 340 340 341 340 340 341 341 342 342 342 342 342 341 341 341 341 342 344 345 344 345 346 346 346 345 344 344 344 345 345 345 345 343 342 340 340 340
334 333 333 334 333 332 332 332 332 332 334 336 338 339 339 340 340 341 341 340 338 339 341 340 338 336 335 335 336 338 339 339 340 340 339 339 339 339 340 339 339 340 341 343 344 344 344 344 344 344 343 343 343 343 344 345 346 346 347 347 346 345 344 345 345 346 346 346 345 344 342 341 340 341
334 334 334 334 332 331 332 332 332 331 330 332 335 338 340 340 340 340 341 341 338 337 339 340 340 339 337 336 335 336 338 339 340 340 339 338 337 337 337 337 338 339 339 340 341 342 343 344 345 345 346 345 345 345 345 345 345 346 347 347 346 345 346 346 346 345 346 346 346 344 343 341 341 341
334 334 334 334 332 331 331 331 331 331 330 330 332 334 337 339 340 340 340 340 338 337 337 338 339 339 339 337 335 334 335 336 338 339 339 339 339 338 337 337 337 337 337 337 337 338 338 340 342 343 344 345 345 345 345 345 345 345 345 345 346 345 346 346 346 345 345 345 346 345 344 343 342 342
334 335 334 334 332 331 330 330 330 331 331 331 331 332 335 336 338 339 339 339 338 338 338 338 337 338 339 338 335 334 335 334 335 338 339 340 341 340 339 339 338 337 338 338 337 337 337 339 341 342 342 343 343 344 344 344 345 345 345 344 345 345 345 346 346 345 345 345 345 346 346 345 343 341
334 334 334 334 333 331 330 330 329 331 331 331 331 332 333 333 336 339 338 337 337 338 339 339 338 337 338 339 336 334 335 336 335 336 338 341 341 341 340 340 339 338 339 338 338 338 338 339 340 341 342 343 343 343 343 344 345 345 346 345 345 345 346 346 346 345 345 345 344 345 346 346 344 341
334 334 334 334 333 331 330 329 328 330 332 331 331 332 331 330 332 336 338 337 336 336 338 339 339 338 338 339 338 336 336 336 336 335 338 341 340 340 340 340 339 339 338 339 338 338 337 337 338 340 342 343 343 343 343 344 344 344 344 345 345 345 345 346 346 346 346 345 345 344 345 345 343 340
334 334 334 334 335 333 332 331 329 329 331 332 331 330 329 330 331 335 338 338 336 335 337 339 339 339 339 339 340 339 337 336 335 336 337 340 341 340 340 339 339 339 340 340 339 339 338 337 337 339 341 342 343 343 343 343 343 344 344 345 345 345 345 345 345 346 346 346 345 344 344 344 343 340
334 334 333 334 336 334 333 332 331 330 330 331 331 329 329 332 334 334 337 339 337 335 336 338 339 339 339 340 340 339 337 336 336 337 338 341 342 340 339 339 339 340 341 340 339 338 339 338 337 339 342 343 342 342 343 343 343 344 344 345 346 346 345 345 345 345 346 346 345 344 344 345 344 341
334 334 334 334 336 335 334 334 333 332 330 331 331 331 332 335 336 335 337 338 338 335 334 336 338 339 340 340 340 339 338 336 337 337 338 340 342 341 339 339 338 341 341 339 337 336 338 338 338 339 341 342 341 341 342 342 343 344 344 344 345 345 345 345 345 346 346 345 344 344 344 345 344 341
334 334 334 334 335 335 335 335 335 334 333 333 334 334 335 336 335 336 337 337 337 336 334 333 334 336 339 340 340 340 338 337 337 338 338 341 341 340 340 339 339 340 338 336 335 335 337 338 337 338 340 341 341 341 341 342 343 343 343 343 344 344 344 345 345 345 345 344 344 344 344 344 343 340
332 334 334 334 334 333 334 334 334 334 333 333 333 334 335 336 335 335 337 336 336 336 335 332 331 334 337 340 340 339 337 337 338 338 339 341 341 341 341 340 339 339 337 334 334 336 337 338 338 338 339 340 341 341 341 342 343 343 343 343 344 344 344 344 344 344 343 342 341 340 340 341 341 339
330 332 333 334 334 334 334 333 333 333 332 332 332 332 333 334 334 335 335 335 335 335 335 333 332 334 336 338 338 337 336 337 338 339 340 341 341 341 341 340 339 338 336 333 334 336 338 338 338 338 339 340 341 341 341 342 343 343 343 344 344 343 343 343 343 341 339 337 336 336 337 339 339 339
330 331 331 332 334 334 335 334 333 333 332 332 332 332 333 333 333 334 334 334 334 334 334 333 334 335 335 335 334 334 336 338 339 340 340 341 341 341 341 340 339 337 335 333 334 337 338 338 338 338 339 340 341 341 341 341 342 342 343 345 344 342 341 341 339 337 335 333 333 334 336 337 337 338
331 331 332 332 333 333 335 334 334 333 333 333 333 333 333 334 334 333 333 333 334 334 334 334 334 335 335 334 334 334 336 338 339 339 341 341 341 341 341 341 340 337 334 333 335 337 338 338 338 339 339 340 340 341 341 342 342 343 344 345 344 341 340 339 337 337 336 335 334 334 335 336 337 337
333 334 335 335 335 334 335 334 335 335 335 335 335 334 334 334 334 334 333 333 333 333 334 334 334 334 334 334 334 333 335 337 339 340 341 340 339 341 342 341 339 336 334 334 337 338 337 338 338 338 339 340 340 340 341 342 343 344 344 345 344 343 341 339 339 339 338 338 337 336 336 337 337 337
335 335 336 337 337 337 337 336 337 337 337 337 337 336 335 335 335 335 335 334 333 333 334 335 335 335 334 335 335 334 334 338 340 340 339 339 340 341 341 339 337 335 334 336 338 338 337 338 338 338 339 340 339 339 341 343 344 344 343 343 343 343 343 342 342 341 342 342 341 340 340 340 340 340
335 336 336 337 337 336 336 336 336 337 337 337 337 337 337 336 336 336 336 335 334 334 334 335 336 336 335 335 337 337 337 340 341 340 339 339 341 340 338 336 335 334 335 337 338 339 338 338 339 339 339 338 338 339 342 344 344 343 342 342 341 342 342 343 343 342 342 344 343 343 343 343 343 343
333 334 334 335 335 335 336 336 336 336 336 337 338 338 338 337 337 337 337 336 335 334 335 336 337 336 335 337 340 340 341 342 340 339 339 341 341 338 336 334 334 334 335 337 339 339 339 338 339 339 338 338 339 340 342 343 343 342 342 341 341 341 341 341 342 341 341 341 341 342 342 342 342 342
330 331 332 332 333 335 336 336 337 337 337 339 339 339 339 339 338 338 337 336 334 334 336 337 337 337 337 339 342 342 342 340 337 337 339 340 340 338 335 333 332 334 337 339 340 340 339 338 338 337 338 339 339 340 342 342 341 341 341 341 341 341 341 341 340 340 340 339 339 339 340 340 340 340
327 329 330 331 332 334 335 336 337 338 339 340 341 340 340 339 339 338 337 336 336 336 338 339 338 338 339 341 342 342 340 338 336 336 338 339 339 337 335 334 334 337 339 340 340 340 340 337 337 337 338 339 339 341 342 342 341 340 340 340 340 340 340 340 340 339 339 339 338 338 339 339 339 338
324 325 327 329 330 332 333 334 336 337 337 338 340 340 339 339 338 338 337 337 337 339 339 339 338 339 341 342 342 341 338 336 336 337 338 339 337 336 335 337 339 340 341 340 340 340 339 337 337 338 338 339 339 340 340 341 340 339 339 339 339 338 338 338 338 338 337 338 337 338 337 337 338 338
322 322 324 326 328 329 331 332 333 335 336 336 338 338 338 338 338 338 338 339 339 339 339 338 339 341 341 341 341 340 337 336 336 339 339 337 335 335 337 339 340 341 341 340 339 338 337 337 337 338 338 338 339 338 338 340 339 339 338 337 337 337 336 336 336 336 336 336 336 336 337 338 337 339
322 321 321 323 325 326 328 330 331 332 333 335 336 337 337 338 338 338 338 339 340 340 339 339 340 340 341 341 340 338 336 336 338 340 338 335 334 336 338 338 339 340 339 337 336 336 337 338 338 338 339 338 338 338 339 339 338 338 337 336 336 336 336 336 336 335 335 336 335 336 337 338 338 339
324 323 320 321 322 323 324 326 328 329 330 332 334 335 336 336 336 337 337 338 339 339 339 339 340 340 340 340 339 336 336 338 339 338 335 335 336 337 338 338 339 338 335 335 337 338 339 339 338 338 339 338 338 337 337 337 337 337 336 336 335 334 335 335 335 336 337 337 337 338 338 338 339 340
325 325 321 319 321 322 322 324 325 326 327 328 330 332 334 335 336 337 336 336 337 338 338 339 339 339 339 338 336 335 336 338 338 337 336 337 338 339 339 338 336 333 332 335 338 339 339 339 338 337 338 338 337 335 335 336 337 336 336 336 335 334 333 333 333 334 334 336 337 338 338 338 338 339
326 326 323 319 320 322 322 323 323 323 323 324 326 329 331 333 335 336 337 337 337 337 337 337 338 338 337 336 335 336 338 338 338 338 337 338 340 340 339 338 334 332 333 336 338 338 338 340 339 337 336 336 335 333 333 336 336 334 335 336 335 334 334 333 333 332 332 333 334 334 335 336 337 338
326 327 325 321 321 322 323 324 323 322 322 322 324 325 327 330 333 334 335 336 337 337 337 336 337 337 337 337 337 338 338 337 336 336 335 336 338 338 338 338 336 336 336 337 337 337 338 339 338 337 337 337 334 332 333 335 334 333 334 335 334 335 335 334 334 333 333 333 333 333 333 334 334 336
326 327 326 324 322 322 324 325 325 324 322 321 322 323 323 326 330 332 333 334 334 334 335 336 336 336 336 336 335 334 334 333 332 332 333 333 334 334 333 333 334 334 335 336 337 336 336 339 338 337 338 338 336 334 335 335 335 334 334 333 333 334 333 332 333 333 332 332 333 333 333 334 334 334
324 325 325 325 324 323 325 326 326 326 323 321 321 322 322 323 325 328 331 332 332 332 333 333 334 334 333 333 332 332 333 333 332 333 333 333 333 334 334 333 333 333 333 335 336 336 336 338 338 337 337 338 337 336 336 336 336 336 335 334 334 334 333 332 332 332 332 332 332 332 332 333 334 334
322 322 322 324 325 325 325 325 325 326 325 323 322 322 322 321 322 323 326 329 330 330 330 330 331 332 331 331 331 331 332 333 333 333 334 335 335 336 337 337 336 336 336 337 338 338 336 335 336 337 337 337 338 339 339 338 337 337 337 337 337 337 336 336 334 334 333 334 334 333 333 333 334 333
319 320 321 322 325 325 324 324 325 325 325 325 325 323 322 321 321 321 322 324 326 326 326 326 327 328 328 329 330 330 331 332 332 332 333 334 335 336 337 337 337 337 337 337 336 334 332 331 332 333 333 333 334 336 337 337 338 337 336 336 336 336 337 336 336 335 335 335 335 335 334 334 334 334
318 320 321 322 323 324 322 322 324 325 325 326 325 324 323 322 322 321 321 321 321 322 323 323 323 324 324 324 325 326 327 328 328 328 329 330 330 331 333 335 336 336 335 335 334 332 331 331 331 330 329 327 327 327 329 331 334 335 334 334 333 334 334 333 333 334 335 335 335 336 336 336 336 336
318 320 321 322 322 322 321 322 323 323 325 325 325 325 324 323 322 322 321 321 321 321 321 321 322 322 322 322 322 323 323 323 323 324 324 324 325 324 326 329 333 333 332 332 332 331 331 331 331 329 328 326 326 326 326 327 329 332 332 331 332 333 333 334 334 334 335 336 336 336 336 336 336 336
318 320 321 322 322 321 320 322 322 322 323 325 325 325 325 325 324 323 322 322 322 321 321 321 321 321 321 321 320 320 320 320 321 322 322 323 324 323 322 324 328 329 329 328 328 328 329 329 329 329 329 329 329 330 330 329 330 332 333 332 333 334 334 334 334 335 336 336 335 334 334 335 335 336
317 319 320 322 322 321 320 321 321 321 322 323 325 325 325 325 325 324 324 323 322 322 321 320 320 320 321 321 321 320 320 320 320 320 320 322 325 324 323 323 325 325 325 326 325 325 326 326 328 329 329 330 331 333 333 332 332 332 332 332 333 333 332 333 333 334 335 335 334 334 334 334 336 336
317 317 319 321 323 322 322 322 321 320 320 322 324 325 325 324 325 324 325 324 324 323 322 321 320 320 320 320 321 321 321 321 321 321 320 320 322 324 325 325 325 325 325 325 324 323 323 323 325 327 328 329 331 332 332 331 331 330 330 329 329 328 329 329 329 330 331 333 334 335 335 334 335 334
320 319 318 320 321 322 322 322 322 321 320 320 322 324 324 324 323 323 324 324 325 324 324 323 322 322 321 321 320 320 320 321 322 322 322 321 320 321 323 324 324 325 325 324 323 322 321 320 321 323 324 325 327 329 330 329 328 327 326 326 325 324 324 324 324 325 327 330 332 334 333 332 332 331
321 321 320 320 321 321 321 321 321 321 321 320 320 321 322 323 322 322 322 323 324 324 325 324 324 323 323 323 323 322 322 322 322 322 322 322 322 321 322 323 323 323 323 323 322 321 321 320 320 320 319 320 322 324 325 326 325 324 323 323 322 322 323 323 322 323 325 327 329 330 330 329 327 327
320 320 320 320 321 321 321 321 321 321 321 320 320 320 321 321 322 323 323 323 324 325 325 326 325 325 325 324 324 324 325 325 325 324 324 323 323 323 322 322 323 323 323 323 322 321 321 321 321 320 319 319 320 321 322 323 322 322 323 324 323 323 324 324 323 324 325 326 326 327 326 325 324 324
319 319 319 320 321 321 321 321 321 321 321 321 321 320 320 321 321 322 323 323 323 324 325 325 325 326 325 325 325 325 325 325 325 325 324 323 323 323 323 323 323 323 323 322 322 322 322 321 321 321 319 319 320 320 321 322 321 321 323 324 324 323 323 324 323 323 323 323 323 323 323 322 321 321
318 318 319 319 320 320 321 321 321 321 321 321 321 321 320 320 320 320 321 321 321 322 322 323 324 324 324 324 324 324 325 325 325 324 324 323 323 323 323 323 323 323 323 322 322 322 322 321 321 321 320 319 319 320 321 321 320 320 322 324 324 322 322 322 322 321 321 320 320 320 320 319 319 319
318 318 318 318 318 319 320 321 321 321 321 321 321 321 321 321 321 320 320 320 320 320 320 321 322 323 324 324 323 323 324 324 325 325 324 324 324 323 323 323 323 323 323 322 323 322 322 321 321 321 320 319 319 319 319 320 320 320 320 322 323 321 320 320 320 320 319 319 319 319 319 319 319 319
317 317 317 317 317 318 318 319 319 319 319 320 320 321 321 321 321 321 320 320 320 320 320 320 321 321 322 323 323 322 322 322 323 325 325 324 324 324 324 324 324 323 323 323 323 323 322 321 321 321 321 320 320 319 318 318 318 318 319 320 321 320 320 319 319 319 319 319 319 319 319 319 319 318
Wind_Speed
40 39 37 36 36 35 33 31 32 34 37 37 38 37 36 36 35 34 32 32 33 34 35 32 29 25 21 18 18 18 19 19 20 21 22 22 23 23 22 23 23 24 25 26 27 28 28 29 29 30 31 31 32 33 32 32 31 30 31 31 32 31 30 29 28 27 27 27 28 28 29 29 29 29
41 40 38 36 37 37 35 32 30 31 33 35 36 36 36 36 37 37 34 33 33 33 34 33 29 26 21 17 16 17 16 15 16 18 20 20 20 21 21 23 24 24 25 25 26 26 27 27 27 28 28 29 30 31 31 30 29 29 29 31 32 32 31 29 28 28 28 28 28 28 28 29 30 30
42 42 40 38 38 37 35 34 32 31 30 31 33 34 34 34 36 38 37 36 36 34 33 33 30 27 24 19 18 18 17 15 14 15 17 18 19 20 21 23 23 24 24 24 25 25 25 26 26 26 26 26 27 28 29 29 28 27 28 29 31 32 32 30 29 29 29 29 28 27 26 27 29 31
40 42 42 40 39 37 35 34 34 33 30 29 29 30 30 31 33 35 37 39 39 37 35 35 33 31 29 24 21 20 19 17 15 15 16 16 17 18 20 21 22 23 23 24 25 25 26 26 26 26 26 26 26 27 28 28 28 28 28 30 32 34 34 32 31 30 30 30 28 26 25 26 27 30
39 42 42 40 39 37 36 35 35 34 34 32 30 29 29 31 32 34 37 39 40 39 38 38 37 35 34 31 25 22 22 21 20 19 18 18 18 18 18 19 21 22 23 24 25 26 26 26 27 27 27 27 27 27 28 28 29 29 29 30 32 34 34 34 33 32 31 31 30 28 27 26 26 29
39 41 41 40 40 38 36 36 35 35 37 36 34 32 31 32 33 33 35 37 38 39 38 39 39 39 38 36 30 26 24 23 22 22 21 21 21 20 20 20 21 22 23 24 24 24 25 25 26 27 27 28 28 28 29 29 29 29 30 31 32 33 33 34 33 33 32 32 31 30 28 27 26 28
38 41 41 40 40 39 37 37 36 36 38 38 37 36 33 33 34 34 34 35 36 38 38 39 40 40 40 39 34 29 27 25 24 24 24 23 23 23 22 22 22 22 23 24 24 24 24 25 25 25 26 26 27 28 28 28 28 29 30 31 32 32 33 33 33 33 33 33 32 31 29 28 27 27
35 39 40 39 39 38 37 38 38 37 38 39 38 39 37 35 35 36 36 35 36 37 39 40 41 41 40 39 36 33 29 27 27 26 25 24 24 24 24 23 23 24 25 26 26 26 26 26 26 26 25 25 26 26 27 27 28 28 29 29 30 31 32 32 33 34 34 34 32 30 29 28 27 26
34 36 38 38 38 38 37 37 38 38 39 40 40 40 40 37 36 37 38 37 36 35 37 40 41 40 40 39 38 36 32 29 28 27 26 25 25 25 25 24 24 25 26 27 27 27 27 27 27 27 26 25 25 25 26 26 27 27 27 27 28 29 30 31 32 34 34 34 31 29 28 28 27 25
33 34 35 35 36 38 37 37 38 39 39 40 41 41 40 39 37 37 39 39 36 35 37 39 40 39 37 37 38 37 34 31 29 28 27 26 26 26 26 26 25 25 26 26 27 28 28 28 28 27 26 25 25 25 25 25 26 26 25 25 25 26 26 28 29 30 31 31 29 28 27 27 26 25
30 32 33 33 34 36 36 36 37 38 40 41 42 41 40 40 39 38 39 39 37 35 36 38 39 38 37 37 38 37 35 32 30 29 28 28 27 27 27 27 25 24 25 26 26 27 28 28 28 27 27 26 26 25 25 25 25 25 24 24 24 24 23 24 25 26 26 25 25 25 26 26 25 24
31 32 32 32 33 35 36 36 37 39 40 41 42 41 40 40 40 38 38 39 38 36 36 37 38 38 37 37 38 39 37 34 33 30 29 29 28 27 28 27 25 25 25 25 26 26 27 27 27 27 27 27 26 26 26 25 25 24 23 23 22 21 20 20 20 20 21 21 22 24 24 24 24 23
30 33 34 34 35 36 37 38 39 39 40 40 41 41 40 39 40 39 39 39 38 37 37 39 38 36 34 35 37 39 38 36 33 29 27 28 28 27 28 27 25 24 24 25 25 25 25 25 26 26 27 26 25 25 25 24 23 22 22 21 20 19 18 17 17 18 18 19 21 22 23 23 22 22
29 31 34 35 36 37 38 39 40 39 39 40 41 42 40 40 41 41 40 41 40 39 38 40 40 37 34 36 38 38 37 34 30 27 27 28 26 25 27 27 25 23 23 25 25 24 23 24 25 26 25 25 25 25 24 23 22 22 21 21 20 18 16 16 16 17 18 19 19 20 20 21 20 20
30 30 32 33 34 34 35 37 38 38 38 39 41 43 43 43 44 43 42 42 41 41 42 42 41 38 37 38 38 37 35 32 29 27 27 27 25 24 25 25 24 23 22 23 24 23 22 23 24 24 24 24 24 25 24 22 21 20 19 18 18 17 16 16 16 16 17 17 17 17 17 18 18 19
29 28 29 29 30 30 32 35 38 39 40 42 43 44 44 45 46 46 45 44 41 41 42 44 43 41 40 40 39 37 35 31 28 27 26 25 24 23 24 24 24 23 23 23 23 21 20 21 22 23 23 23 23 23 22 21 20 18 15 15 16 17 16 16 16 16 16 16 16 16 16 17 18 19
23 24 24 26 27 29 30 33 37 40 41 43 44 44 45 46 48 48 48 47 44 42 42 44 45 43 41 40 39 37 33 29 27 26 25 24 24 23 24 24 23 23 23 23 22 22 21 21 21 22 21 20 21 22 20 19 19 17 15 14 15 16 16 16 16 16 16 16 17 17 17 18 18 20
16 19 20 23 25 28 31 33 36 38 40 41 42 42 44 46 48 49 49 49 47 44 42 43 44 42 40 38 37 35 31 27 25 24 23 22 22 21 21 22 23 23 23 22 21 22 21 19 20 20 19 18 20 20 19 19 19 18 17 16 15 15 15 15 16 16 16 17 18 18 18 19 20 20
13 17 20 24 26 28 31 34 37 40 41 41 42 43 45 46 48 49 50 49 48 46 44 43 42 40 38 35 34 33 30 26 24 23 21 21 19 17 19 22 24 24 23 21 20 22 21 17 18 18 16 17 19 18 17 18 18 18 18 17 16 15 15 15 15 14 14 15 17 17 18 18 18 18
13 14 18 24 27 29 30 30 33 37 38 38 40 44 45 44 44 47 49 48 48 46 44 42 41 39 36 32 30 30 28 25 23 21 20 20 20 20 22 24 24 23 22 21 20 21 19 17 16 16 14 15 17 17 18 19 18 17 17 17 16 16 15 16 16 15 14 14 15 15 16 17 17 17
19 19 21 21 19 20 23 24 24 27 31 32 32 37 41 41 41 43 44 44 44 43 42 40 39 37 34 31 29 28 25 23 22 22 22 23 23 24 25 25 25 23 21 20 20 20 19 16 16 15 14 15 16 17 18 18 17 16 16 16 16 16 17 17 17 17 17 16 17 17 17 17 17 17
25 24 24 25 23 18 16 17 17 17 23 27 27 29 34 38 38 39 40 40 40 39 38 37 37 36 34 31 29 27 25 23 23 24 26 25 24 25 25 24 23 21 21 20 19 19 18 16 16 15 14 14 16 17 16 15 15 15 15 15 15 16 16 17 17 17 18 18 18 18 18 18 17 17
30 28 26 25 26 27 23 17 12 10 13 19 26 31 33 36 37 37 36 37 38 37 38 38 38 38 37 33 29 27 25 24 23 25 26 25 24 24 23 21 20 20 20 19 19 19 19 17 16 15 14 14 16 17 17 15 15 14 13 13 14 14 14 15 15 16 16 17 17 18 18 18 18 17
33 31 29 28 27 27 27 23 15 8 4 7 15 23 29 33 37 37 36 36 37 37 38 38 38 38 36 33 29 27 25 25 25 25 26 25 23 22 21 19 19 19 18 18 18 19 19 17 15 15 15 14 14 14 15 15 14 13 12 12 12 12 13 13 14 14 15 15 16 17 18 18 18 19
32 32 31 30 28 27 25 25 22 16 7 1 6 10 15 19 24 28 32 35 35 36 37 37 36 36 34 31 29 27 26 25 26 27 27 25 23 22 20 19 19 19 19 18 17 17 17 16 15 15 16 15 13 12 13 14 13 12 11 10 9 9 10 10 11 11 12 13 14 15 16 16 17 16
28 30 32 31 29 27 25 23 22 22 17 8 3 6 9 13 15 17 21 26 28 30 33 34 33 33 32 30 28 26 26 26 27 27 25 23 22 22 21 20 20 20 20 17 15 14 15 15 15 15 16 17 15 12 13 14 13 12 11 10 8 8 8 8 8 8 9 9 10 12 14 14 14 12
23 24 28 31 29 27 26 24 21 21 22 19 13 7 5 8 11 14 16 20 23 25 27 29 30 31 30 28 27 26 25 25 26 26 24 23 22 21 20 19 19 19 18 16 14 13 13 13 15 16 16 17 16 13 13 14 14 13 12 10 9 9 8 7 7 7 6 6 7 8 10 12 14 14
19 20 22 26 27 26 27 27 25 23 23 22 19 15 12 8 4 8 13 19 24 27 28 28 28 28 28 27 26 26 25 24 24 24 22 22 22 21 20 20 19 19 18 16 14 13 12 13 16 17 16 16 15 14 14 15 14 13 12 11 10 10 9 8 7 7 7 7 6 6 6 8 10 12
16 17 18 21 22 23 25 27 27 27 25 23 21 19 16 13 11 9 7 13 20 26 29 29 27 26 26 25 24 24 24 23 23 22 20 19 20 20 20 20 20 20 20 18 16 14 13 12 15 17 17 16 16 14 14 15 15 14 13 13 11 11 10 9 8 8 8 8 8 8 7 8 9 10
14 14 15 17 18 19 21 23 25 26 25 23 23 22 19 16 14 14 12 11 15 20 24 25 24 22 20 19 18 18 18 16 16 16 15 16 17 18 19 20 20 20 20 19 17 16 15 15 16 16 16 17 18 16 15 15 15 14 14 14 12 11 11 10 9 9 9 9 10 10 10 10 10 10
13 13 13 14 14 15 17 18 19 20 20 21 22 23 22 20 17 14 13 13 14 18 21 23 22 20 19 18 17 16 15 13 12 12 12 13 14 16 17 19 19 18 18 19 19 19 19 19 19 18 16 17 18 18 17 17 17 15 15 15 14 12 11 11 11 10 9 9 10 11 11 11 11 11
11 12 12 11 10 11 12 14 15 15 15 17 19 21 22 22 20 17 13 13 14 16 18 19 20 18 17 16 16 15 14 13 11 11 10 11 12 13 13 15 17 17 18 19 18 18 18 17 16 14 13 13 14 16 18 19 18 17 16 16 16 15 13 12 12 11 11 12 13 13 13 12 12 11
11 11 11 10 10 10 11 13 14 14 13 13 15 16 17 19 20 19 17 14 13 12 12 12 14 16 15 14 14 14 14 12 10 8 8 8 7 7 8 10 12 14 17 17 14 13 13 12 11 10 9 9 10 12 14 16 17 17 17 17 17 17 16 15 14 14 14 14 15 15 14 13 12 12
10 11 12 10 10 11 13 14 14 13 11 10 12 13 13 14 17 19 20 19 17 14 12 10 9 9 10 10 10 10 10 9 7 6 6 6 6 5 5 4 7 11 16 16 14 13 12 10 9 8 7 8 9 10 11 13 14 14 15 16 16 16 16 16 17 17 17 16 16 16 16 15 14 14
9 11 13 12 10 10 12 13 15 14 10 8 9 10 11 11 13 16 18 19 20 19 18 15 12 9 6 6 6 6 5 5 4 4 4 4 5 6 6 4 3 7 11 12 12 11 10 9 8 7 7 8 9 10 11 12 13 14 15 15 16 16 15 15 16 17 18 18 17 17 17 17 17 17
9 11 13 13 11 11 10 12 15 16 13 9 8 8 9 9 10 12 15 17 19 20 20 19 17 14 11 8 6 4 3 2 2 3 4 5 5 6 6 6 5 6 8 8 7 7 7 7 6 6 7 8 9 9 10 10 10 11 12 13 14 15 14 14 14 16 17 17 17 16 16 16 17 17
8 10 12 13 13 11 10 10 13 15 16 13 10 8 8 8 8 8 10 12 15 17 17 17 17 16 15 13 11 9 6 4 3 3 5 6 6 6 5 5 6 5 5 5 5 5 5 6 6 6 7 8 9 9 8 8 8 8 9 8 9 10 11 11 12 14 15 15 15 14 14 14 15 15
9 9 10 12 13 12 11 10 10 12 14 14 12 9 9 10 9 8 7 7 9 11 12 13 13 13 12 12 11 10 9 7 6 4 4 5 6 6 5 6 7 7 6 5 5 5 6 7 8 9 8 8 9 10 10 10 9 9 8 7 7 7 7 8 9 10 11 11 12 12 12 11 11 12
11 10 10 10 11 12 12 11 10 10 11 12 12 11 10 10 10 9 8 6 5 6 7 9 10 11 11 10 9 8 7 6 6 4 3 3 5 6 6 6 6 6 6 5 3 2 1 2 4 7 8 8 8 9 10 11 10 8 7 7 7 7 7 8 8 9 9 9 10 10 10 10 9 9
11 11 10 10 9 10 11 11 10 9 9 10 11 10 9 8 8 8 8 7 5 4 3 3 3 5 7 7 7 7 5 4 3 3 2 2 4 7 9 9 9 8 7 6 4 2 1 1 1 1 4 6 6 7 8 9 9 8 7 6 6 7 7 8 9 9 9 9 9 9 8 8 8 8
10 10 10 10 9 9 9 10 10 9 7 7 8 8 8 7 6 6 6 5 4 2 1 2 1 2 2 2 3 4 4 3 3 3 3 4 6 8 10 11 11 10 9 9 7 5 3 2 1 2 2 3 5 7 8 8 8 8 8 7 7 7 7 7 7 7 8 8 8 8 8 7 7 7
10 11 11 11 10 9 8 8 8 8 7 6 5 5 5 5 5 5 4 3 2 1 1 2 2 2 2 4 6 6 5 4 4 5 6 7 8 9 10 11 11 10 10 9 8 6 5 4 4 4 4 4 5 6 7 8 8 7 8 9 9 9 8 8 7 7 7 7 7 8 8 7 7 7
10 11 11 11 10 9 8 6 6 6 5 4 3 2 2 2 2 1 1 1 1 2 3 3 5 5 5 7 9 7 5 5 5 5 6 8 9 10 10 11 11 11 10 9 9 8 7 7 7 6 5 5 6 7 7 8 8 7 7 10 12 12 11 10 9 8 8 8 8 8 8 7 6 7
10 11 11 10 10 9 8 7 6 5 4 2 1 1 2 3 2 2 2 2 2 3 4 5 6 6 8 9 9 7 6 6 5 5 5 7 8 9 10 10 11 11 11 10 11 11 10 9 9 8 6 5 6 7 7 8 9 9 8 9 12 12 11 10 10 9 9 10 10 9 8 8 8 8
11 11 11 11 10 9 8 7 6 6 5 4 2 2 2 2 3 3 4 4 4 5 5 6 7 7 8 9 9 7 7 8 5 4 5 7 8 10 11 12 13 14 13 13 13 13 13 12 11 10 8 7 7 7 7 7 9 10 10 10 11 11 11 10 10 9 9 10 11 11 10 10 10 10
Wind_Direction
266 264 262 261 260 261 264 267 263 257 254 254 254 252 251 251 252 255 259 262 263 258 253 253 254 254 252 248 250 252 254 257 257 256 256 256 256 254 254 255 256 257 257 257 257 258 260 261 261 262 261 260 258 257 258 258 258 258 257 256 256 257 257 257 257 258 259 261 262 262 259 257 256 256
265 263 260 258 259 260 262 265 264 259 254 251 250 248 247 248 250 251 254 259 263 260 255 253 254 255 252 244 243 247 252 257 258 254 251 251 252 252 254 256 258 258 257 257 258 258 259 260 261 263 263 262 260 259 259 259 258 257 257 256 255 254 254 255 257 258 259 261 263 263 261 258 255 255
262 262 259 257 257 259 261 262 262 260 255 250 248 246 245 247 249 250 251 255 260 259 255 254 253 255 254 247 240 242 248 255 259 254 250 251 252 253 255 256 257 257 256 257 257 257 259 260 262 263 263 262 261 259 259 259 258 257 256 255 253 253 254 256 257 258 260 261 261 263 262 258 255 254
259 259 258 257 257 257 258 259 260 258 256 254 252 248 245 246 247 248 248 251 256 257 255 255 255 255 257 253 242 240 245 251 257 257 253 252 253 254 255 255 256 256 257 257 258 259 260 260 261 261 260 260 258 258 258 259 259 259 258 256 254 254 256 258 259 259 259 259 259 260 261 259 255 253
257 256 256 255 255 255 256 257 257 255 254 256 256 253 250 249 247 246 246 248 254 257 256 256 256 254 255 254 246 241 245 250 254 256 253 252 253 255 256 258 259 260 261 263 264 263 263 263 263 262 261 260 259 258 258 258 259 259 258 257 255 255 256 258 259 259 259 258 257 256 257 258 255 252
256 254 254 253 253 253 254 254 254 253 252 253 256 255 253 252 250 246 245 247 251 254 255 256 256 254 252 251 248 244 247 252 255 256 255 255 257 257 258 261 264 265 267 269 270 268 266 265 265 265 265 264 263 262 261 260 260 260 259 257 256 255 255 256 256 256 258 258 257 255 254 255 256 254
258 255 253 251 251 252 251 251 250 250 251 251 253 254 254 255 252 247 245 247 250 253 254 255 256 255 252 250 248 248 252 255 255 254 255 257 259 259 260 263 265 267 268 270 271 270 268 268 268 269 269 268 266 264 262 262 262 261 260 259 258 257 257 257 256 255 257 258 256 254 253 253 255 255
258 257 255 252 251 251 250 250 249 248 249 250 251 252 255 256 254 249 246 247 250 254 254 253 254 254 254 252 251 252 254 255 252 251 252 255 259 260 260 262 265 267 268 270 271 271 272 271 271 271 271 270 268 266 265 264 264 264 264 263 262 261 260 259 257 256 256 256 255 252 251 252 254 255
255 257 258 256 253 250 248 248 248 247 248 250 251 253 257 258 255 250 246 246 250 253 252 250 251 253 255 254 253 253 253 253 251 249 250 254 258 260 258 259 263 266 269 271 273 273 273 273 273 272 271 270 269 269 269 268 268 268 268 268 266 264 262 260 258 255 253 253 253 251 250 252 253 254
257 256 257 258 254 250 247 246 246 247 248 251 253 255 258 258 256 251 246 244 248 253 251 248 248 251 253 254 254 252 251 253 252 250 251 254 257 257 255 256 260 265 270 274 275 275 273 271 272 270 268 268 269 270 271 271 271 271 271 271 268 265 261 258 255 251 249 249 250 249 249 252 253 252
260 257 256 256 254 251 248 246 246 248 248 250 253 255 256 256 254 251 246 243 245 250 251 247 245 247 250 252 253 251 251 254 253 250 252 253 254 254 254 255 259 265 270 275 277 276 272 269 267 267 267 267 268 269 270 271 271 271 271 270 267 264 259 254 249 246 245 246 246 247 248 250 249 248
262 260 256 252 249 249 249 247 247 249 249 249 251 253 253 252 252 249 244 242 244 246 248 249 248 248 248 248 250 250 250 252 251 248 251 255 254 253 255 256 259 264 272 277 279 276 271 267 265 266 267 267 267 267 268 270 271 269 269 268 266 262 255 247 243 242 242 243 245 245 246 245 243 242
264 261 258 254 251 250 250 249 250 250 250 250 250 250 248 246 248 247 243 241 243 243 245 248 249 247 245 243 245 246 248 249 249 250 253 256 256 257 258 256 256 264 274 279 279 275 270 266 265 266 268 268 267 267 267 269 268 267 268 267 261 255 249 243 242 243 244 244 244 243 242 240 239 237
267 261 259 258 258 257 254 252 251 251 251 250 250 250 247 243 244 244 241 241 243 242 243 246 245 243 241 242 243 244 246 248 248 248 251 255 258 261 260 255 254 264 276 280 278 273 267 265 266 267 268 267 266 265 266 266 265 265 268 264 251 243 243 242 244 245 244 242 241 240 238 236 234 233
271 267 263 262 263 260 256 253 251 251 251 251 250 249 247 245 245 244 241 240 241 241 242 244 243 240 240 244 246 245 246 247 246 246 250 256 261 263 261 258 259 267 276 278 275 270 265 265 267 268 268 266 264 263 262 260 258 261 265 255 239 235 240 242 243 242 240 238 236 234 232 231 231 232
272 269 265 263 262 260 255 252 252 253 254 254 252 249 246 244 245 246 245 242 240 241 242 242 241 240 242 246 247 244 244 244 244 247 251 256 261 264 262 260 262 270 277 276 271 267 264 265 267 269 269 265 260 258 255 251 250 252 254 245 235 235 238 238 238 238 236 235 231 229 229 230 232 235
280 278 274 269 265 263 260 258 257 257 256 254 252 249 246 243 242 244 246 245 244 244 245 243 242 243 246 248 245 242 242 243 245 249 252 256 263 265 261 260 264 271 273 268 266 264 261 262 266 268 268 263 256 253 249 244 242 241 241 238 237 237 236 235 236 236 236 236 233 232 233 233 236 240
278 277 277 274 270 266 264 261 259 257 255 252 250 247 244 241 239 240 241 243 244 244 245 245 245 247 249 250 248 245 243 245 248 250 254 260 265 262 258 258 262 265 263 257 259 261 259 262 266 266 264 259 253 250 245 240 238 237 236 235 234 234 234 234 235 236 238 238 236 235 236 238 240 241
286 277 275 274 270 268 266 263 259 257 254 251 249 247 243 239 238 238 237 237 238 239 241 243 244 245 245 247 249 247 245 247 250 249 253 258 257 252 253 255 257 260 257 250 251 257 259 261 263 263 260 255 252 246 238 235 236 236 236 236 234 234 233 233 234 234 235 235 231 231 233 236 235 234
343 320 308 293 278 270 271 270 263 258 255 251 248 246 242 238 237 237 235 233 233 235 238 240 241 241 240 241 244 243 242 246 246 243 246 249 246 246 251 254 256 257 254 248 247 252 256 256 256 256 253 250 248 242 233 232 235 236 237 236 235 234 233 233 234 233 232 234 232 230 231 233 232 229
20 12 1 340 309 283 278 279 271 257 251 249 245 238 235 235 236 236 234 232 232 232 234 236 237 237 237 238 238 237 236 239 238 237 239 241 242 245 249 253 256 255 250 246 244 246 248 247 246 248 249 247 245 238 231 231 236 238 238 237 236 235 234 235 238 238 238 239 240 237 235 235 233 230
24 20 14 6 359 348 324 302 287 267 253 248 239 229 228 231 234 234 233 231 230 229 230 231 232 232 233 234 234 232 230 230 230 232 236 239 240 243 248 252 255 253 247 242 237 237 240 241 241 245 246 244 241 235 229 229 235 238 238 238 238 237 236 236 238 240 241 240 239 239 237 236 233 229
21 18 15 13 12 11 6 349 315 284 262 250 239 231 229 231 233 233 232 229 226 222 222 222 223 226 229 230 229 226 224 227 230 232 234 235 236 240 244 246 245 243 241 235 229 230 235 237 238 240 240 238 237 232 227 229 232 233 234 236 236 236 237 235 235 237 238 237 236 235 235 234 232 227
16 15 16 19 17 13 14 12 360 331 285 253 239 232 229 228 230 230 228 227 224 219 215 215 218 222 225 226 225 222 222 227 229 228 228 229 231 234 238 237 235 234 234 228 222 227 234 235 233 232 231 232 235 230 224 224 225 226 229 232 232 234 235 234 234 235 236 236 237 235 234 235 233 225
16 14 15 19 20 16 15 16 14 13 11 272 223 223 226 227 226 223 219 220 221 218 214 212 214 218 221 222 221 221 225 228 225 223 223 224 227 229 231 231 227 224 224 220 217 226 232 230 227 227 225 225 228 224 218 218 218 217 215 215 216 219 223 226 229 232 235 238 239 238 236 236 234 227
18 15 13 16 19 19 19 20 22 25 31 42 113 190 213 222 225 222 216 214 215 217 215 213 212 215 217 218 219 223 227 225 221 220 221 222 223 225 227 227 221 215 216 219 222 230 232 225 221 223 222 218 217 215 211 208 204 198 194 193 192 195 202 207 210 215 223 229 231 233 230 224 220 218
17 16 12 13 17 20 23 26 28 30 35 40 50 73 136 191 212 219 219 216 214 214 215 213 212 215 216 217 221 226 224 219 217 217 217 217 218 218 214 213 213 211 215 223 228 231 232 228 223 221 216 211 210 208 198 192 191 190 190 190 188 184 182 183 185 190 196 200 205 215 219 213 207 208
13 17 13 12 18 25 30 31 32 35 38 41 43 49 62 80 128 185 201 208 211 214 217 216 215 217 220 221 223 221 216 210 207 206 206 209 214 212 207 207 212 213 217 227 233 232 234 232 222 213 208 208 210 206 192 187 189 192 192 192 189 182 176 174 176 174 168 167 170 176 189 199 201 205
14 22 19 15 21 32 35 34 32 33 38 45 47 49 56 65 71 87 137 178 187 192 199 206 211 214 215 214 210 206 205 206 203 200 202 209 214 214 211 210 214 217 220 227 230 228 230 226 212 207 207 208 208 205 197 192 192 192 193 195 191 185 183 182 181 177 169 163 161 162 171 185 195 203
18 28 27 20 22 30 32 32 31 30 34 43 51 54 59 69 76 79 89 117 140 148 157 169 179 182 180 175 172 176 186 195 198 200 205 210 214 217 218 218 218 221 227 231 228 224 223 215 204 206 211 207 203 204 204 202 200 198 200 200 195 191 195 196 191 186 182 176 170 171 175 181 187 195
16 24 25 22 22 22 23 27 31 33 35 42 50 55 58 64 74 85 92 103 113 117 124 133 139 141 141 142 145 154 165 172 179 187 195 202 208 215 219 218 216 218 226 230 224 220 219 211 200 199 205 207 207 209 210 211 210 208 208 207 204 204 207 208 206 203 202 199 193 189 188 188 189 194
14 15 13 15 20 21 19 20 26 33 40 43 46 51 55 59 65 74 86 101 111 111 111 116 121 125 129 134 138 143 150 156 165 175 183 192 201 206 207 209 212 214 216 217 211 206 208 207 197 190 192 199 207 211 212 215 217 214 212 211 213 216 217 215 215 216 215 214 212 208 205 202 200 202
23 24 19 16 20 24 23 19 19 26 35 39 43 49 55 61 66 68 72 79 91 100 104 111 119 122 122 122 125 133 141 145 148 156 162 166 175 185 190 203 215 210 199 194 188 179 180 182 179 175 177 188 202 209 212 216 219 218 217 218 221 224 224 222 222 222 221 222 221 216 214 215 213 212
28 33 30 26 27 30 30 27 24 23 25 32 41 47 54 63 71 73 71 69 69 75 82 90 102 114 122 124 124 125 130 133 131 132 135 129 118 116 131 180 209 192 177 173 170 164 164 170 174 180 193 207 216 219 219 220 222 220 221 224 226 227 229 228 227 227 227 227 224 220 219 221 221 220
24 30 28 27 32 37 36 33 30 29 29 36 44 48 51 59 68 74 75 73 68 67 69 71 71 73 90 122 140 138 135 136 128 117 111 107 99 88 85 100 148 152 149 153 154 152 156 167 177 189 204 211 218 224 224 224 224 224 224 226 228 230 232 232 231 230 228 226 225 224 224 223 222 222
19 26 26 27 31 36 41 41 36 35 37 43 51 58 58 55 57 66 75 78 75 70 65 62 61 61 67 80 101 122 135 146 144 125 104 96 97 99 98 105 117 122 129 139 141 140 151 165 177 198 211 208 208 217 221 218 218 220 221 223 228 232 232 230 229 228 226 224 225 227 226 222 220 222
15 22 26 31 35 37 43 45 40 38 41 44 51 57 49 40 46 63 74 78 81 81 77 70 63 59 60 64 72 81 87 89 102 122 120 112 109 111 123 145 161 163 162 167 170 176 186 188 189 200 211 209 205 204 200 193 191 194 194 196 206 215 217 216 217 220 221 221 222 226 227 224 222 224
16 18 21 28 33 36 39 42 41 41 42 43 48 53 45 37 42 58 69 74 81 87 93 96 91 83 74 67 64 66 69 70 72 88 124 145 146 142 148 163 171 172 177 187 195 202 213 215 208 203 207 211 206 195 183 176 177 182 184 184 188 194 198 201 206 211 216 217 216 218 220 219 219 224
20 20 18 20 25 29 32 34 35 38 42 44 48 57 60 55 50 49 53 62 70 77 90 102 109 111 108 101 93 82 69 60 59 69 97 160 181 183 184 187 188 182 180 184 192 201 227 233 217 211 211 211 207 198 190 187 188 193 199 208 216 218 215 214 214 214 215 213 209 208 208 206 207 212
21 21 21 21 20 21 25 30 30 31 41 47 48 53 62 66 59 55 58 63 67 75 87 100 122 130 128 127 130 130 120 105 102 106 116 187 209 211 210 213 215 210 202 203 209 210 186 64 72 174 207 209 210 210 208 207 207 208 212 220 225 222 218 215 213 212 212 210 208 204 201 197 196 197
21 21 22 24 22 18 19 26 30 33 40 44 43 47 55 63 68 72 76 76 73 68 350 307 272 191 169 179 182 173 163 155 155 162 181 204 213 214 213 214 217 214 210 212 214 210 212 213 175 155 182 208 218 224 225 225 226 223 219 218 216 211 209 205 200 201 205 204 200 198 196 195 196 200
27 26 25 25 26 23 21 21 24 29 32 32 36 47 52 57 67 75 81 92 104 134 249 278 269 245 230 235 229 219 211 207 195 188 196 206 212 217 218 218 218 217 216 217 217 219 229 234 220 212 215 218 224 230 229 228 230 226 215 210 208 207 208 208 204 204 206 205 205 204 203 201 202 208
31 30 28 27 25 24 25 25 23 26 29 27 29 32 23 22 40 42 31 111 160 199 213 228 240 238 233 239 244 239 222 211 202 200 212 216 217 222 228 227 223 223 224 224 226 232 235 227 220 226 234 229 228 233 230 225 225 226 217 210 206 204 207 210 212 213 215 215 216 217 216 217 221 223
31 29 28 28 24 22 23 26 27 32 37 33 8 328 316 307 300 297 292 279 260 247 231 230 238 237 235 247 263 274 268 248 218 194 213 230 228 227 232 232 230 231 232 228 229 236 237 227 222 230 243 243 239 243 241 231 225 224 221 214 208 204 204 207 210 216 221 222 224 227 231 236 242 245
30 26 24 23 20 18 18 18 19 22 22 20 14 350 313 291 278 271 264 256 252 247 238 235 238 238 241 253 266 275 273 269 255 211 214 231 233 229 231 233 233 235 235 232 233 235 234 229 226 230 238 244 249 254 255 245 233 227 226 224 220 218 217 216 215 220 227 230 231 234 236 239 242 246